When you browse on this site, cookies collect data to enhance your experience and personalize the content and advertising you see.
Visit our Privacy Policy to learn more. By continuing to use the site, you agree to this use of cookies and data.
  • în România
  • Lista ţărilor
  • Pe 7 zile
  • Temperatura apei
  • Hartă satelitară
  • Meteo pe hartă
  • Widget-uri
  • user-avatar
    Intrare

    Meteo pe oră la Rawson

    Astăzi, 16 Ianuarie, Miercuri

    Timp Temperatura Precipitaţii Vânt Presiune Umiditate
    00:00 +26°C° 0 mm 7 m/s 753 mmHg 28%
    01:00 +24°C° 0 mm 9 m/s 753 mmHg 28%
    02:00 +23°C° 0 mm 10 m/s 753 mmHg 29%
    03:00 +22°C° 0 mm 10 m/s 754 mmHg 30%
    04:00 +19°C° 0 mm 10 m/s 754 mmHg 31%
    05:00 +18°C° 0 mm 9 m/s 755 mmHg 32%
    06:00 +18°C° 0 mm 10 m/s 755 mmHg 32%
    07:00 +18°C° 0 mm 10 m/s 756 mmHg 33%
    08:00 +19°C° 0 mm 11 m/s 756 mmHg 33%
    09:00 +21°C° 0 mm 10 m/s 757 mmHg 32%
    10:00 +22°C° 0 mm 10 m/s 758 mmHg 30%
    11:00 +22°C° 0 mm 9 m/s 758 mmHg 29%
    12:00 +22°C° 0 mm 10 m/s 759 mmHg 33%
    13:00 +21°C° 0 mm 10 m/s 760 mmHg 37%
    14:00 +19°C° 0 mm 10 m/s 761 mmHg 42%
    15:00 +18°C° 0 mm 10 m/s 762 mmHg 42%
    16:00 +18°C° 0 mm 10 m/s 762 mmHg 43%
    17:00 +17°C° 0 mm 9 m/s 763 mmHg 44%
    18:00 +17°C° 0 mm 8 m/s 764 mmHg 48%
    19:00 +16°C° 0 mm 7 m/s 764 mmHg 51%
    20:00 +15°C° 0 mm 6 m/s 765 mmHg 54%
    21:00 +15°C° 0 mm 5 m/s 765 mmHg 54%
    22:00 +14°C° 0 mm 4 m/s 766 mmHg 54%
    23:00 +14°C° 0 mm 3 m/s 767 mmHg 53%

    Mâine, 17 Ianuarie, Joi

    Timp Temperatura Precipitaţii Vânt Presiune Umiditate
    00:00 +14°C° 0 mm 3 m/s 767 mmHg 54%
    01:00 +15°C° 0 mm 2 m/s 767 mmHg 54%
    02:00 +15°C° 0 mm 1 m/s 766 mmHg 54%
    03:00 +15°C° 0 mm 2 m/s 767 mmHg 55%
    04:00 +15°C° 0 mm 2 m/s 767 mmHg 56%
    05:00 +14°C° 0 mm 2 m/s 767 mmHg 57%
    06:00 +16°C° 0 mm 3 m/s 767 mmHg 53%
    07:00 +17°C° 0 mm 4 m/s 767 mmHg 49%
    08:00 +17°C° 0 mm 5 m/s 767 mmHg 45%
    09:00 +20°C° 0 mm 5 m/s 767 mmHg 40%
    10:00 +22°C° 0 mm 5 m/s 767 mmHg 35%
    11:00 +23°C° 0 mm 6 m/s 767 mmHg 30%
    12:00 +24°C° 0 mm 6 m/s 766 mmHg 27%
    13:00 +27°C° 0 mm 7 m/s 766 mmHg 24%
    14:00 +28°C° 0 mm 8 m/s 765 mmHg 21%
    15:00 +28°C° 0 mm 8 m/s 765 mmHg 21%
    16:00 +28°C° 0 mm 9 m/s 764 mmHg 22%
    17:00 +28°C° 0 mm 10 m/s 763 mmHg 22%
    18:00 +26°C° 0 mm 10 m/s 763 mmHg 27%
    19:00 +23°C° 0 mm 11 m/s 763 mmHg 31%
    20:00 +21°C° 0 mm 11 m/s 763 mmHg 35%
    21:00 +21°C° 0 mm 12 m/s 763 mmHg 36%
    22:00 +21°C° 0 mm 12 m/s 763 mmHg 37%
    23:00 +19°C° 0 mm 12 m/s 763 mmHg 39%

    Poimâine, 18 Ianuarie, Vineri

    Timp Temperatura Precipitaţii Vânt Presiune Umiditate
    00:00 +19°C° 0 mm 12 m/s 762 mmHg 39%
    01:00 +19°C° 0 mm 13 m/s 762 mmHg 40%
    02:00 +19°C° 0 mm 13 m/s 762 mmHg 41%
    03:00 +21°C° 0 mm 12 m/s 762 mmHg 37%
    04:00 +21°C° 0 mm 11 m/s 761 mmHg 33%
    05:00 +22°C° 0 mm 11 m/s 761 mmHg 29%
    06:00 +24°C° 0 mm 9 m/s 761 mmHg 25%
    07:00 +27°C° 0 mm 7 m/s 761 mmHg 22%
    08:00 +29°C° 0 mm 5 m/s 761 mmHg 18%
    09:00 +30°C° 0 mm 5 m/s 761 mmHg 16%
    10:00 +32°C° 0 mm 4 m/s 761 mmHg 14%
    11:00 +33°C° 0 mm 4 m/s 761 mmHg 13%
    12:00 +33°C° 0 mm 4 m/s 760 mmHg 13%
    13:00 +33°C° 0 mm 4 m/s 760 mmHg 13%
    14:00 +33°C° 0 mm 5 m/s 759 mmHg 13%
    15:00 +33°C° 0 mm 5 m/s 759 mmHg 14%
    16:00 +34°C° 0 mm 6 m/s 758 mmHg 14%
    17:00 +34°C° 0 mm 6 m/s 758 mmHg 15%
    18:00 +33°C° 0 mm 7 m/s 758 mmHg 16%
    19:00 +32°C° 0 mm 7 m/s 757 mmHg 18%
    20:00 +32°C° 0 mm 7 m/s 757 mmHg 19%
    21:00 +32°C° 0 mm 8 m/s 757 mmHg 18%
    22:00 +32°C° 0 mm 9 m/s 757 mmHg 16%
    23:00 +32°C° 0 mm 10 m/s 757 mmHg 14%

    19 Ianuarie, Sâmbătă

    Timp Temperatura Precipitaţii Vânt Presiune Umiditate
    00:00 +31°C° 0 mm 9 m/s 757 mmHg 13%
    01:00 +31°C° 0 mm 9 m/s 756 mmHg 13%
    02:00 +29°C° 0 mm 9 m/s 756 mmHg 12%
    03:00 +29°C° 0 mm 9 m/s 756 mmHg 13%
    04:00 +29°C° 0 mm 9 m/s 756 mmHg 13%
    05:00 +28°C° 0 mm 9 m/s 756 mmHg 14%
    06:00 +31°C° 0 mm 9 m/s 756 mmHg 13%
    07:00 +32°C° 0 mm 9 m/s 756 mmHg 13%
    08:00 +33°C° 0 mm 10 m/s 756 mmHg 13%
    09:00 +34°C° 0 mm 9 m/s 756 mmHg 12%
    10:00 +37°C° 0 mm 8 m/s 756 mmHg 11%
    11:00 +38°C° 0 mm 8 m/s 756 mmHg 10%
    12:00 +39°C° 0 mm 8 m/s 755 mmHg 9%
    13:00 +40°C° 0 mm 9 m/s 755 mmHg 9%
    14:00 +40°C° 0 mm 9 m/s 754 mmHg 8%
    15:00 +40°C° 0 mm 10 m/s 753 mmHg 8%
    16:00 +40°C° 0 mm 10 m/s 753 mmHg 8%
    17:00 +40°C° 0 mm 10 m/s 752 mmHg 8%
    18:00 +39°C° 0 mm 10 m/s 752 mmHg 10%
    19:00 +38°C° 0 mm 10 m/s 752 mmHg 11%
    20:00 +37°C° 0 mm 10 m/s 752 mmHg 12%
    21:00 +36°C° 0 mm 11 m/s 752 mmHg 13%
    22:00 +36°C° 0 mm 12 m/s 752 mmHg 14%
    23:00 +34°C° 0 mm 13 m/s 752 mmHg 15%

    20 Ianuarie, Duminică

    Timp Temperatura Precipitaţii Vânt Presiune Umiditate
    00:00 +33°C° 0 mm 11 m/s 752 mmHg 16%
    01:00 +32°C° 0 mm 9 m/s 752 mmHg 16%
    02:00 +32°C° 0 mm 6 m/s 752 mmHg 17%
    03:00 +30°C° 0 mm 6 m/s 752 mmHg 19%
    04:00 +28°C° 0 mm 6 m/s 752 mmHg 22%
    05:00 +27°C° 0 mm 5 m/s 752 mmHg 24%
    06:00 +28°C° 0 mm 5 m/s 752 mmHg 22%
    07:00 +29°C° 0 mm 4 m/s 752 mmHg 20%
    08:00 +30°C° 0 mm 3 m/s 753 mmHg 19%
    09:00 +31°C° 0 mm 3 m/s 752 mmHg 18%
    10:00 +33°C° 0 mm 3 m/s 752 mmHg 17%
    11:00 +34°C° 0 mm 3 m/s 752 mmHg 16%
    12:00 +35°C° 0 mm 4 m/s 751 mmHg 16%
    13:00 +36°C° 0 mm 5 m/s 750 mmHg 16%
    14:00 +38°C° 0 mm 6 m/s 750 mmHg 17%
    15:00 +36°C° 0 mm 7 m/s 749 mmHg 21%
    16:00 +37°C° 0 mm 8 m/s 748 mmHg 25%
    17:00 +35°C° 0 mm 9 m/s 747 mmHg 29%
    18:00 +34°C° 0 mm 8 m/s 747 mmHg 30%
    19:00 +33°C° 0 mm 7 m/s 747 mmHg 31%
    20:00 +32°C° 0 mm 5 m/s 746 mmHg 33%
    21:00 +32°C° 0 mm 6 m/s 747 mmHg 33%
    22:00 +32°C° 0 mm 7 m/s 747 mmHg 34%
    23:00 +30°C° 0 mm 7 m/s 748 mmHg 34%

    21 Ianuarie, Luni

    Timp Temperatura Precipitaţii Vânt Presiune Umiditate
    00:00 +29°C° 0 mm 9 m/s 748 mmHg 33%
    01:00 +28°C° 0 mm 10 m/s 749 mmHg 31%
    02:00 +27°C° 0 mm 11 m/s 749 mmHg 30%
    03:00 +26°C° 0 mm 10 m/s 750 mmHg 32%
    04:00 +24°C° 0 mm 9 m/s 751 mmHg 34%
    05:00 +23°C° 0 mm 8 m/s 751 mmHg 37%
    06:00 +23°C° 0 mm 8 m/s 752 mmHg 36%
    07:00 +23°C° 0 mm 8 m/s 753 mmHg 35%
    08:00 +24°C° 0 mm 9 m/s 754 mmHg 34%
    09:00 +23°C° 0 mm 8 m/s 754 mmHg 36%
    10:00 +22°C° 0 mm 8 m/s 755 mmHg 37%
    11:00 +22°C° 0 mm 7 m/s 755 mmHg 39%
    12:00 +23°C° 0 mm 6 m/s 755 mmHg 36%
    13:00 +23°C° 0 mm 6 m/s 755 mmHg 32%
    14:00 +25°C° 0 mm 5 m/s 754 mmHg 28%
    15:00 +25°C° 0 mm 5 m/s 754 mmHg 34%
    16:00 +23°C° 0 mm 6 m/s 754 mmHg 40%
    17:00 +22°C° 0 mm 6 m/s 753 mmHg 45%
    18:00 +21°C° 0 mm 7 m/s 753 mmHg 49%
    19:00 +20°C° 0 mm 7 m/s 753 mmHg 53%
    20:00 +18°C° 0 mm 8 m/s 752 mmHg 57%
    21:00 +20°C° 0 mm 7 m/s 752 mmHg 55%
    22:00 +20°C° 0 mm 7 m/s 752 mmHg 53%
    23:00 +21°C° 0 mm 7 m/s 752 mmHg 51%
    Arată mai mult